User: anonymous
Location: Caltech
(34.1382°N, 118.1253°W)
Time: 20:58:16
(UTC-07:00)
Language:

Cosmos 44 Rocket - Orbit

View from above orbital plane
View from above orbital plane
View from above satellite
View from above satellite

Ground track
Ground track

The orbit data is extracted from the following two-line orbital elements,

1 00877U 64053B   14114.78501760  .00000349  00000-0  71528-4 0  5781
2 00877 065.0794 049.8393 0075180 214.3029 145.3685 14.58820903633816
Epoch (UTC): 24 April 2014 18:50:25
Eccentricity: 0.0075180
inclination: 65.0794°
perigee height: 644 km
apogee height: 750 km
right ascension of ascending node: 49.8393°
argument of perigee: 214.3029°
revolutions per day: 14.58820903
mean anomaly at epoch: 145.3685°
orbit number at epoch: 63381

The dashed part of the orbit path shows where the satellite is in the earth's shadow,  

DLR